GFSMA_925_thetae_009.txt.gz
Theta_e
326 325 324 324 323 324 324 325 324 323 322 320 320 319 318 310 309 310 312 314 312 310 317 323 327 327 326 325 324 323 322 322 322 322 322 322 322 322 322 321 321 321 321
325 324 325 325 325 324 324 325 324 323 322 322 321 320 320 318 315 312 313 313 313 313 310 316 322 325 326 327 327 326 326 324 323 323 323 323 323 322 322 322 322 322 322
326 326 326 326 326 326 325 324 324 323 322 322 322 321 320 320 319 318 317 316 315 313 312 313 318 320 322 323 325 326 327 327 327 326 324 324 324 324 324 323 323 323 323
325 326 326 326 326 326 325 324 324 323 323 322 321 321 320 320 320 320 319 317 316 317 317 314 311 311 316 319 319 321 323 325 326 326 326 326 324 324 324 324 324 324 323
325 326 326 325 325 325 325 324 324 323 322 321 320 320 320 320 321 321 321 321 320 319 318 318 318 318 314 313 316 317 318 319 321 324 325 325 325 326 325 325 325 324 324
328 326 325 325 325 325 324 324 324 323 323 322 320 320 320 320 320 321 321 320 320 320 321 321 319 317 318 318 315 317 317 318 319 320 321 323 324 324 324 324 324 324 324
331 329 328 328 327 326 326 325 324 322 322 321 319 321 321 321 321 321 321 321 321 321 319 319 318 318 317 317 318 318 318 319 319 320 320 320 321 323 323 324 323 324 324
332 331 331 330 329 327 327 326 325 323 322 322 322 322 324 324 324 324 323 322 323 323 321 320 319 318 318 317 317 317 318 318 321 321 321 321 321 321 322 322 323 323 324
322 322 323 324 326 327 327 326 326 324 323 324 324 322 325 325 320 324 324 323 322 322 322 323 323 321 320 319 319 319 318 318 318 320 321 322 322 322 322 322 322 323 323
314 313 313 313 314 319 326 327 327 325 324 324 325 325 323 325 327 328 326 324 323 321 322 322 322 323 323 322 321 321 321 320 320 319 321 322 323 323 322 322 322 322 322
311 309 308 307 307 308 309 311 317 324 325 326 326 327 327 324 323 324 326 325 325 324 324 322 322 322 322 322 322 323 323 322 321 320 321 322 324 323 323 322 322 322 323
308 306 306 305 306 306 307 307 307 308 312 319 323 324 324 324 325 324 326 326 325 325 325 324 323 322 322 321 322 322 322 322 322 321 322 323 323 323 323 322 323 323 324
305 304 303 303 304 305 306 307 306 306 307 309 311 315 317 320 321 321 322 322 322 323 325 325 325 324 323 323 323 322 320 320 321 321 321 322 322 322 323 322 322 323 324
303 302 302 302 303 304 305 306 305 306 307 307 308 309 311 313 315 318 319 319 320 319 319 320 321 324 324 322 321 322 322 320 319 320 320 321 321 321 322 322 322 322 323
299 299 299 301 302 303 303 302 304 305 305 306 307 308 309 309 310 313 315 317 317 319 318 317 318 319 320 321 322 321 320 320 321 320 320 320 320 320 319 319 322 322 323
296 296 297 299 299 300 299 300 302 303 304 305 305 303 304 306 309 311 313 313 314 314 315 314 315 316 317 318 319 320 321 321 320 319 319 320 321 320 319 319 319 320 321
292 293 294 295 295 295 297 300 298 300 302 301 300 302 303 305 308 308 307 308 309 310 311 311 311 312 314 315 317 318 319 320 319 319 319 319 320 321 320 318 319 319 320
289 290 290 291 291 292 294 296 295 299 297 297 299 301 303 306 304 304 302 304 306 307 307 308 308 309 311 313 314 316 317 318 319 318 319 318 318 319 320 318 318 318 318
288 288 289 289 290 290 293 292 293 296 293 294 297 299 303 300 301 299 299 304 302 300 301 304 308 307 308 310 312 314 315 316 317 318 318 318 317 316 317 319 318 318 318
287 287 288 288 288 289 289 290 292 292 293 295 297 299 296 296 297 298 300 297 295 297 299 300 302 304 305 306 308 311 313 314 314 314 315 315 315 315 315 318 316 317 318
286 286 286 286 287 287 288 289 290 292 294 291 290 292 292 292 292 295 298 296 295 296 297 296 299 301 301 303 305 306 308 309 312 313 312 312 312 310 311 312 313 314 317
286 285 285 285 286 286 287 289 291 293 291 288 288 289 291 291 291 295 295 295 296 295 295 296 297 297 299 300 301 303 303 305 307 310 310 310 310 309 309 310 312 314 315
285 285 285 285 285 285 286 288 290 290 288 288 289 289 290 290 291 294 294 294 294 294 294 294 296 297 298 299 300 300 301 302 305 306 307 308 309 307 308 308 310 312 310
284 284 284 285 285 285 286 288 288 288 288 288 289 289 289 290 292 292 292 292 292 292 292 294 296 297 298 298 300 301 301 302 303 304 303 304 306 303 303 304 306 307 304
284 284 284 284 284 284 285 287 288 288 288 289 289 289 290 290 290 290 291 291 291 291 292 295 295 295 296 295 296 299 301 302 303 304 301 301 296 292 293 296 301 302 300
283 283 283 283 284 284 285 287 288 288 289 289 290 289 289 289 289 290 290 290 292 293 294 294 294 292 292 292 295 297 296 297 297 299 298 296 290 290 291 290 296 299 298

GFSMA_925_thetae_012.txt.gz
Theta_e
323 324 324 324 324 324 324 323 323 324 324 323 323 322 321 320 319 318 315 309 308 310 314 318 319 323 325 327 328 326 325 323 322 322 322 322 322 323 323 323 323 322 322
325 322 324 325 324 325 325 325 325 324 324 324 323 322 322 321 321 319 319 318 316 313 312 315 319 318 321 324 326 328 327 326 324 323 323 323 323 323 323 323 323 323 323
325 325 324 326 326 326 325 325 325 324 324 323 323 323 323 322 321 321 320 320 320 319 317 315 318 319 318 319 321 325 327 327 326 326 326 325 324 324 324 324 324 324 323
326 325 325 325 325 325 325 324 324 324 323 322 322 322 322 322 322 322 321 321 321 321 321 320 318 317 318 319 319 320 322 324 325 326 326 326 326 325 325 325 325 324 324
327 326 325 326 325 325 324 324 323 322 322 321 321 321 321 321 322 323 322 323 323 323 322 323 323 322 320 319 320 320 319 320 321 323 324 325 326 326 325 325 325 325 325
327 325 325 326 325 324 325 325 324 323 322 322 321 321 321 321 321 321 322 322 322 322 321 321 321 320 321 321 320 321 321 321 321 321 321 321 322 324 325 324 325 325 325
329 329 329 328 328 327 327 326 324 322 322 322 320 321 322 323 323 324 324 323 323 323 322 322 322 321 320 320 320 320 320 322 322 322 322 322 322 322 322 324 323 323 324
318 318 317 318 319 321 323 325 325 323 323 323 321 322 324 325 325 325 325 323 323 322 321 322 321 321 322 320 321 321 319 319 321 323 323 324 324 324 323 323 323 323 324
311 311 310 309 308 308 311 313 319 323 323 323 323 322 325 327 326 325 326 324 324 324 324 323 322 322 321 320 321 321 320 321 321 321 323 323 324 325 325 325 324 324 323
308 307 305 305 305 306 307 307 307 309 314 321 322 324 324 323 325 325 324 325 325 324 323 323 324 324 323 322 321 322 323 323 322 322 323 324 324 324 325 325 325 325 324
306 305 304 304 303 304 304 306 306 306 306 310 313 316 318 318 320 321 321 319 319 322 324 324 323 322 323 323 321 321 323 323 323 323 324 325 325 325 325 325 325 325 325
303 302 301 301 301 302 302 303 303 302 304 306 307 308 310 313 314 315 316 315 316 317 318 320 322 323 322 321 321 322 323 322 322 323 324 325 326 327 326 326 326 326 325
299 298 298 298 299 299 300 299 300 301 303 304 304 306 307 309 310 311 312 312 314 314 314 316 317 319 320 321 321 321 320 321 322 321 322 324 325 326 325 325 326 326 325
295 294 293 293 294 294 295 297 299 300 301 302 303 305 305 304 305 306 309 311 311 311 311 312 313 315 316 316 317 319 319 319 320 320 320 321 321 322 324 324 324 324 324
291 290 291 291 291 291 291 293 298 297 296 300 302 299 299 301 302 304 307 309 309 309 308 307 308 309 311 312 313 313 315 316 317 319 318 319 319 319 319 320 321 322 322
289 289 289 289 289 289 289 290 296 292 295 299 294 295 297 300 301 304 305 305 304 306 306 304 304 305 306 307 308 310 311 312 313 313 316 318 318 318 318 319 320 320 320
288 288 288 288 288 288 288 289 291 291 293 294 292 293 295 297 301 300 302 299 298 301 304 303 299 298 299 303 307 309 309 310 313 314 314 314 317 318 318 318 318 319 320
287 287 287 287 287 287 287 288 289 289 292 291 292 294 296 298 295 296 296 294 297 301 296 296 296 297 299 299 302 304 306 307 309 312 313 314 315 316 317 317 318 318 318
286 286 286 286 286 286 286 287 288 289 290 291 292 291 289 291 291 291 292 292 296 297 295 295 296 297 296 296 300 301 301 302 306 308 309 311 312 311 313 315 316 317 317
285 285 285 285 285 285 286 287 288 289 290 292 289 288 287 288 289 291 291 292 296 295 295 295 295 295 295 296 297 298 298 299 301 303 305 305 309 311 312 312 313 314 315
285 285 285 285 285 285 285 287 288 289 289 289 288 288 288 288 289 290 291 292 293 294 294 294 294 293 294 294 295 296 298 299 300 299 301 303 306 309 310 310 310 310 312
284 284 284 284 284 284 285 287 288 288 288 288 288 288 288 288 289 290 290 291 291 292 292 292 292 292 292 292 294 297 298 298 299 299 301 302 302 305 306 307 308 308 310
284 284 283 284 284 284 285 286 287 288 287 287 288 288 288 289 289 289 289 290 290 290 290 290 291 291 291 293 295 295 295 296 297 298 299 300 301 302 304 304 306 307 309
283 283 283 283 283 283 284 286 287 287 287 287 288 288 288 289 289 288 289 289 289 289 289 290 291 292 292 294 294 294 295 294 295 297 299 301 302 302 303 303 303 305 305
283 283 283 283 282 283 284 285 286 287 287 287 287 288 289 288 287 288 289 288 288 289 288 289 290 291 292 291 291 292 292 293 295 295 295 298 300 301 297 297 299 301 302
282 282 282 282 282 283 284 285 286 286 287 287 287 288 287 287 287 287 287 287 287 286 287 288 289 289 289 289 290 290 291 292 292 292 295 296 298 293 294 290 293 301 305

GFSMA_925_thetae_018.txt.gz
Theta_e
329 328 328 328 327 327 327 328 328 328 328 328 328 328 328 328 327 327 327 325 323 323 323 323 324 322 321 323 323 324 326 328 329 329 327 325 326 325 324 324 324 324 324
330 330 329 329 329 328 328 328 328 328 328 328 329 329 328 328 328 327 327 327 326 324 326 325 325 326 325 323 322 323 323 325 328 330 329 328 326 326 325 325 325 325 325
330 330 330 330 329 329 328 328 329 328 329 329 329 328 328 328 327 327 327 327 327 326 324 324 326 327 327 327 326 324 324 324 324 327 329 330 329 327 326 326 325 325 325
329 329 329 329 329 328 328 328 329 329 329 328 328 328 327 326 326 327 327 326 326 326 325 324 323 323 326 328 329 329 327 325 325 325 326 328 330 329 328 327 327 326 326
327 328 328 329 328 328 328 327 326 326 326 326 325 324 324 324 326 327 327 326 325 325 325 324 323 322 321 321 325 328 329 329 328 326 325 325 325 328 329 329 328 327 327
325 326 323 321 321 321 320 320 320 320 321 321 321 321 321 321 322 323 325 325 326 326 325 325 325 324 323 322 321 322 325 327 328 328 327 326 326 325 326 327 328 328 327
312 312 312 311 311 312 312 311 312 312 312 314 312 314 315 316 321 319 323 324 321 322 323 325 323 325 325 324 322 321 322 324 326 327 327 327 327 327 326 326 326 327 328
308 308 308 308 308 309 309 309 309 309 309 309 310 311 314 313 313 314 311 311 314 314 318 321 322 322 323 323 324 323 322 322 324 325 327 326 327 327 327 327 326 326 326
306 306 306 306 306 306 306 306 306 306 306 306 307 308 312 313 312 308 309 309 311 312 311 312 315 316 316 317 319 320 321 321 320 322 324 325 326 327 328 328 328 328 327
303 301 301 302 302 302 302 302 301 302 302 303 303 304 305 306 308 309 307 307 308 309 309 309 310 310 311 312 315 318 319 320 320 320 322 323 325 326 328 328 328 329 329
301 298 298 298 298 298 298 298 298 298 300 300 300 302 303 304 304 307 309 305 303 303 304 305 306 308 310 310 311 312 316 315 317 318 320 322 323 325 323 325 330 329 329
298 296 295 295 295 295 295 295 295 297 299 297 298 300 302 303 303 302 302 303 303 301 301 303 304 306 309 308 308 309 310 308 307 308 310 313 316 318 319 322 324 323 324
295 294 293 293 293 293 293 293 294 295 297 295 296 299 298 296 296 296 297 302 303 301 302 303 303 303 303 304 304 305 305 304 301 301 304 307 310 312 314 316 317 318 319
293 292 292 291 292 291 291 292 292 293 294 294 293 295 295 294 295 296 298 301 303 302 301 300 300 299 298 299 300 302 301 299 298 300 303 300 301 306 309 310 313 315 316
291 291 290 290 291 290 290 290 291 291 291 292 292 293 293 293 294 295 295 296 299 299 300 298 297 294 294 295 296 300 299 298 297 298 298 299 301 304 307 309 309 310 313
290 290 289 289 289 289 289 289 290 290 290 290 291 291 292 292 293 293 291 291 293 294 296 294 294 292 293 294 297 297 296 295 296 297 296 296 299 303 303 302 307 310 311
289 289 288 288 288 288 288 288 289 289 289 290 290 291 291 292 291 290 290 290 290 291 295 293 293 293 293 293 294 294 294 295 295 295 295 299 297 299 301 304 302 304 308
288 288 288 288 288 288 287 287 288 288 289 290 290 290 290 290 289 289 289 289 290 291 292 294 292 292 292 292 293 293 293 293 293 293 293 294 295 297 299 300 303 304 303
287 287 287 287 287 287 287 287 287 288 289 289 289 289 289 289 289 289 289 290 290 291 291 291 292 291 292 292 292 292 292 292 292 292 293 293 294 296 298 300 300 299 302
287 287 286 286 286 286 286 286 287 288 288 289 289 289 288 288 288 288 289 289 290 290 290 290 291 291 291 291 291 292 292 291 292 292 293 294 295 296 298 296 299 300 303
286 286 286 286 286 286 286 286 287 287 288 288 288 288 287 287 288 288 289 289 289 289 290 291 291 290 290 290 291 290 291 291 291 291 293 294 295 296 296 296 297 298 300
286 286 286 285 285 285 285 285 286 287 287 288 287 287 287 287 287 288 288 288 288 289 289 290 290 290 289 289 289 289 289 291 291 290 293 293 293 293 294 295 295 297 299
286 286 285 285 285 285 284 285 286 286 287 287 287 286 287 287 287 287 287 287 288 289 288 287 288 288 288 288 288 289 289 290 291 290 291 292 292 293 293 294 295 297 298
286 285 285 285 284 284 284 284 285 286 286 286 286 286 286 287 287 287 287 288 289 287 286 286 285 286 287 287 287 287 288 289 289 290 291 293 292 292 293 294 293 296 298
285 285 284 284 284 283 284 284 285 285 286 286 286 286 286 287 286 286 287 288 287 286 284 284 285 286 285 285 285 287 288 289 291 291 291 291 291 292 292 292 291 294 296
284 284 284 284 283 283 284 284 285 285 285 285 286 286 286 286 285 286 287 285 285 284 284 285 285 284 283 284 285 285 286 288 289 289 290 289 290 290 291 292 293 292 293

GFSMA_925_thetae_021.txt.gz
Theta_e
330 329 329 329 329 329 329 329 330 330 330 331 331 330 330 330 330 330 330 329 329 328 327 327 328 329 328 326 325 325 326 326 328 329 330 330 328 327 327 325 325 325 325
332 332 332 331 331 331 331 331 330 331 331 331 330 330 330 330 329 329 329 329 328 328 328 327 328 329 331 330 329 326 325 326 326 327 328 330 331 329 328 328 326 325 325
333 332 332 332 332 332 331 330 330 330 330 329 329 328 329 328 327 327 327 327 328 329 328 328 327 328 328 330 331 331 329 327 326 326 326 327 330 330 330 329 328 328 326
331 331 331 331 331 330 330 329 328 327 327 326 325 325 325 324 324 324 325 326 327 327 327 327 326 326 326 327 328 330 331 330 330 328 327 327 327 328 329 329 329 329 328
330 331 329 327 324 325 324 322 320 320 320 319 319 319 319 320 320 320 321 323 324 326 326 326 325 325 325 325 325 326 327 329 329 329 329 329 328 327 327 328 328 328 329
317 318 316 314 314 315 314 313 312 313 312 313 313 313 313 314 315 315 320 321 323 322 317 320 323 325 325 325 325 325 326 326 327 327 328 328 329 329 328 328 327 327 328
311 311 311 311 311 311 311 310 310 311 311 310 310 311 311 310 312 312 311 309 310 311 313 313 314 318 321 322 322 321 324 325 326 326 326 326 328 328 328 328 329 327 328
308 308 308 308 308 308 308 307 307 306 306 306 307 307 310 309 310 307 306 307 308 309 311 310 311 313 313 313 312 314 317 319 320 322 323 323 324 327 327 329 329 329 328
304 303 303 303 303 303 303 302 302 302 303 303 303 304 307 306 307 305 305 306 306 305 307 306 305 306 307 308 309 309 311 314 317 318 320 321 321 322 323 323 325 329 328
302 300 300 299 300 299 299 299 299 299 299 301 301 300 301 303 305 306 304 303 302 302 301 302 302 302 304 307 309 310 311 311 313 315 316 316 317 318 320 322 325 324 325
301 298 297 297 297 297 296 296 297 297 298 300 299 299 300 301 302 302 301 301 299 299 299 300 302 301 302 303 307 308 307 307 308 309 310 310 310 310 312 314 317 319 322
299 296 295 295 295 295 295 294 295 296 297 299 297 297 298 301 300 298 298 298 299 299 300 300 301 302 303 302 303 302 301 303 303 305 305 306 306 307 309 309 310 315 317
296 295 294 294 294 293 293 293 293 294 294 296 295 295 295 296 297 296 297 298 299 299 300 298 299 296 298 298 297 296 295 297 298 301 302 302 302 302 302 302 304 305 308
294 293 293 292 292 292 292 292 292 293 293 293 293 293 293 294 294 295 296 297 298 296 294 294 295 295 295 294 293 293 294 293 296 300 300 299 298 298 299 300 300 301 306
292 292 292 291 291 291 291 291 291 291 291 291 292 292 292 293 293 293 295 294 294 294 293 293 293 292 294 293 293 294 294 295 296 297 296 296 297 299 297 298 301 303 304
291 291 291 290 290 290 290 290 290 290 290 290 291 291 292 292 292 293 293 292 292 292 292 292 292 292 292 293 292 293 293 293 293 293 295 295 296 296 295 297 299 299 301
290 290 290 290 290 290 290 289 289 289 289 290 290 291 291 291 291 291 291 291 291 291 292 292 292 292 292 291 292 292 292 293 293 293 293 293 294 293 293 294 295 297 298
290 290 289 289 289 289 289 288 288 289 288 289 290 290 290 290 290 290 290 290 290 290 290 292 291 291 291 291 291 292 291 291 291 291 292 292 292 293 294 294 295 296 299
289 289 289 289 288 288 288 288 288 288 288 289 289 289 289 290 289 289 289 289 289 290 290 290 290 290 290 291 291 290 289 289 291 291 291 291 292 292 294 294 296 297 297
289 289 288 288 288 288 287 287 287 287 287 288 288 288 289 289 288 288 288 289 289 290 289 290 290 290 290 290 290 288 288 289 290 289 289 289 290 291 292 294 296 297 297
288 288 288 288 288 287 287 287 287 287 287 287 288 288 288 288 288 288 288 289 288 289 289 289 290 290 290 288 288 288 288 288 288 288 289 290 290 291 292 292 293 293 294
288 288 288 288 287 287 287 287 286 286 286 287 287 288 287 287 287 287 288 288 288 288 288 288 289 290 287 287 286 287 287 288 288 287 288 289 289 290 291 292 292 294 294
288 288 288 287 287 286 286 286 286 286 286 287 287 287 287 287 287 287 287 287 287 287 288 287 287 287 286 285 286 287 287 287 287 287 287 289 289 291 291 292 292 292 294
287 287 287 286 286 285 285 285 285 286 286 286 286 286 286 286 287 287 287 287 288 287 286 285 286 285 285 286 286 286 286 286 287 287 288 289 290 289 291 291 291 290 292
287 286 286 285 285 285 285 285 286 286 286 286 286 286 286 286 286 287 287 287 285 285 284 284 285 285 284 285 285 285 285 286 286 287 287 287 288 289 288 289 289 290 292
286 285 285 285 285 285 285 286 286 286 286 286 286 286 286 285 286 287 286 285 284 284 285 284 284 283 283 283 283 284 284 285 285 286 285 285 286 287 288 289 290 289 289

GFSMA_925_thetae_024.txt.gz
Theta_e
330 330 330 329 329 330 330 330 330 330 330 331 331 331 330 330 330 329 329 329 329 329 329 329 330 330 330 330 332 331 328 327 328 328 328 329 330 331 330 328 327 326 326
332 332 332 332 332 331 331 330 330 330 330 330 329 328 327 327 327 328 327 327 326 327 327 328 330 331 331 330 330 331 331 331 328 327 328 328 328 329 329 330 329 328 327
332 332 332 332 331 330 330 330 329 327 326 325 325 325 325 324 322 323 323 323 323 324 326 327 327 327 330 330 329 329 330 329 330 331 329 328 328 327 327 328 329 329 329
330 331 330 329 326 326 324 322 317 317 317 316 315 317 317 320 318 319 319 319 320 321 323 325 326 326 325 325 327 327 327 328 327 327 329 330 330 329 328 327 327 328 329
327 324 318 316 315 315 313 312 311 312 312 311 311 311 311 311 311 312 313 314 315 313 312 312 312 315 318 321 325 326 326 326 326 327 326 326 328 330 330 329 328 328 328
314 313 311 311 310 311 310 310 309 309 308 308 307 307 307 306 308 310 309 307 304 305 307 309 310 311 312 312 315 318 321 323 323 323 325 326 327 328 328 329 330 330 329
308 308 309 308 307 307 307 305 304 303 303 303 304 304 303 307 305 305 300 303 302 304 307 308 308 308 307 307 307 309 312 313 315 316 318 320 321 322 324 325 327 329 330
305 304 303 303 302 302 302 301 300 300 301 300 303 301 302 303 304 300 302 303 302 303 301 302 303 301 301 302 302 302 303 306 310 314 316 318 320 321 321 322 323 324 326
301 300 299 299 299 299 299 298 298 298 298 299 300 300 301 302 300 301 301 302 300 298 301 299 298 299 299 300 302 303 304 304 309 311 313 314 316 316 317 317 318 319 321
301 298 297 297 297 296 296 295 296 296 297 298 299 299 298 298 299 300 302 299 298 297 297 297 297 298 300 300 300 301 304 306 306 308 310 311 312 312 313 314 314 315 316
298 297 295 295 295 295 294 294 294 294 295 296 298 297 296 297 296 299 298 296 295 295 296 297 299 298 298 297 298 297 299 298 299 300 302 305 306 308 309 310 310 310 311
296 295 294 294 293 293 293 293 293 292 293 294 294 295 295 295 294 295 296 294 294 294 295 296 296 295 295 294 295 295 295 296 297 298 299 300 301 301 303 305 305 305 305
294 293 293 292 292 292 292 292 292 291 292 292 293 292 293 293 293 294 293 293 293 294 294 294 293 292 293 292 292 292 293 294 294 295 295 297 299 300 301 301 300 300 301
293 292 292 291 291 291 291 291 291 291 291 291 291 291 291 291 292 292 293 293 292 293 292 291 291 290 291 291 291 292 291 293 293 293 293 295 296 296 297 297 297 300 299
292 291 291 290 290 290 290 290 290 290 290 290 290 290 290 291 291 291 291 291 292 292 291 290 290 290 290 290 291 292 291 291 292 292 293 293 294 294 295 296 296 297 297
291 290 290 290 290 290 289 289 289 289 289 289 289 289 289 290 290 290 290 290 290 290 290 290 290 289 289 290 290 290 290 290 290 292 292 292 292 293 293 294 294 295 294
290 290 289 289 289 289 289 288 288 288 288 288 288 288 289 289 289 290 289 290 289 289 289 289 288 288 290 289 289 289 289 290 291 290 289 289 290 291 292 293 293 293 295
289 289 289 289 289 288 288 288 288 288 287 287 287 288 288 288 288 289 289 288 288 288 288 288 289 289 288 288 288 288 289 290 290 288 288 288 290 291 290 291 292 293 292
289 289 289 288 288 288 288 288 287 287 287 287 287 287 287 287 288 288 288 288 287 288 288 289 288 288 288 288 288 289 289 288 287 287 286 287 288 289 289 290 291 292 293
288 288 288 288 288 288 288 287 287 287 287 286 286 286 287 287 288 287 287 288 288 288 288 288 288 288 288 288 288 288 287 286 285 285 286 286 288 288 288 289 290 291 291
288 288 288 288 288 288 287 287 287 287 286 286 286 286 286 287 287 287 288 288 288 287 288 289 288 287 288 286 286 286 285 284 285 285 286 287 286 286 287 287 288 289 291
288 288 288 288 287 287 287 287 287 287 286 285 285 286 286 286 286 286 287 286 287 288 288 287 287 287 285 285 285 285 284 285 286 286 285 285 285 286 287 288 288 291 292
288 287 287 287 286 286 286 286 286 286 286 286 286 285 285 286 285 285 286 287 287 287 287 286 285 284 284 285 285 285 285 285 286 285 285 285 286 286 287 287 287 288 290
287 287 286 286 285 285 285 286 286 286 286 286 285 285 285 285 286 286 286 287 287 286 285 284 284 284 285 285 285 284 284 284 284 284 284 285 285 286 285 286 287 287 288
286 286 286 285 285 285 285 285 286 286 286 285 285 285 285 285 285 286 286 287 285 284 283 283 285 285 283 283 283 283 283 284 284 284 283 283 284 284 284 284 285 286 288
286 285 285 285 284 284 284 286 286 286 286 285 285 285 285 285 285 286 286 285 284 283 283 284 282 281 281 282 282 282 283 283 283 283 283 283 283 283 284 285 285 286 286

GFSMA_925_thetae_030.txt.gz
Theta_e
328 329 329 330 330 330 329 329 329 328 328 325 323 322 320 320 320 318 319 317 318 316 317 322 325 326 328 330 330 329 329 329 328 330 329 330 331 331 329 328 327 329 330
331 331 331 330 329 329 328 325 322 320 318 317 318 316 314 313 313 313 312 311 311 312 313 314 316 317 319 323 326 327 327 327 327 327 327 328 328 329 330 331 330 329 328
332 331 328 324 321 320 320 319 316 313 311 310 309 308 308 308 307 304 306 308 306 305 303 305 310 312 316 316 317 318 318 320 320 320 322 323 326 328 328 328 329 330 331
329 328 322 317 314 316 313 312 310 308 305 303 302 301 301 301 300 304 306 302 301 300 300 303 301 303 305 307 308 311 312 313 312 313 313 314 316 318 321 324 326 327 328
324 322 317 311 310 310 309 306 303 300 299 298 297 299 299 298 303 303 300 298 302 298 302 300 299 298 298 301 303 304 305 307 309 310 311 311 313 315 316 318 321 322 324
315 312 308 306 305 304 302 300 299 297 298 297 298 297 297 299 300 300 297 299 297 297 299 297 297 295 293 298 298 301 304 305 305 306 305 307 308 309 312 315 317 319 321
307 305 303 302 301 300 297 296 296 295 296 295 298 296 297 301 299 298 297 297 295 299 297 295 295 293 293 293 297 300 301 301 302 302 303 308 310 311 312 313 314 314 315
303 302 301 299 298 296 295 294 294 294 295 294 295 297 297 297 299 295 297 295 297 293 294 293 293 292 293 294 296 296 296 297 298 299 303 305 306 307 307 309 311 312 314
300 299 298 297 295 294 293 293 293 292 292 294 296 295 294 294 293 295 293 295 292 294 292 293 292 292 292 295 294 294 294 294 295 299 300 300 302 304 305 306 306 307 309
298 297 295 294 294 293 292 292 292 291 292 293 292 293 294 294 293 293 294 292 292 291 292 292 291 292 291 293 293 292 292 293 293 295 297 298 299 300 301 302 303 304 306
296 295 294 293 292 292 291 291 291 290 291 290 291 291 291 290 291 292 291 289 290 290 290 291 291 291 291 291 291 291 291 291 293 295 295 296 297 298 299 300 301 301 302
295 293 292 291 291 291 290 290 290 290 289 289 289 289 289 289 290 289 288 288 289 289 290 290 290 290 290 290 290 290 290 291 292 292 293 295 297 296 297 298 299 299 300
293 292 291 290 290 290 290 289 289 289 289 288 288 288 288 288 287 288 288 288 288 289 289 289 289 289 289 289 289 289 290 289 289 291 292 292 293 294 294 295 296 296 297
291 290 290 290 289 289 289 289 289 288 288 287 287 287 287 287 286 287 287 288 288 287 288 288 288 288 288 288 288 288 288 288 289 289 290 290 291 291 292 293 293 295 297
290 290 290 289 289 289 289 288 288 288 287 287 287 287 286 286 286 286 286 287 287 287 287 287 288 288 287 287 287 287 287 288 288 289 289 289 289 290 291 292 293 294 294
290 289 289 289 289 289 288 288 288 287 287 287 286 287 286 286 286 285 286 286 286 287 287 287 287 287 287 287 287 287 288 288 287 287 288 288 289 290 291 292 292 293 293
289 289 289 289 289 288 288 288 287 287 287 286 287 286 286 286 285 285 285 285 286 286 286 287 286 287 287 287 287 287 287 287 287 287 287 287 287 288 289 289 291 290 289
289 288 288 288 288 288 287 287 287 286 287 287 287 286 286 285 285 285 285 285 285 286 286 286 287 287 287 286 286 286 287 287 286 286 285 286 286 287 287 287 288 288 288
288 288 288 288 287 287 286 286 286 287 287 287 286 286 285 285 285 285 285 285 286 286 286 286 286 286 286 286 287 286 285 284 284 283 284 284 285 285 286 286 287 288 289
288 288 287 287 286 286 285 286 286 287 287 286 286 286 286 285 285 285 285 286 286 285 285 286 286 287 287 286 286 284 283 283 283 283 283 284 285 285 285 286 286 287 287
287 287 286 286 285 285 285 286 287 287 286 286 286 286 285 285 286 286 286 286 285 286 286 287 286 286 286 284 284 283 283 283 283 284 284 283 283 284 284 284 284 284 284
287 286 286 285 285 284 285 286 287 286 286 286 285 285 285 285 285 285 285 285 285 286 286 286 287 285 284 283 283 283 283 284 283 283 283 283 283 283 282 283 283 284 285
286 286 285 284 284 283 285 286 286 286 285 285 285 285 284 284 284 284 284 284 285 285 286 284 284 283 283 283 283 284 283 282 283 282 282 283 282 282 282 282 283 284 284
285 285 284 284 283 283 284 285 286 285 285 284 284 284 284 284 284 284 284 285 285 283 283 282 282 283 284 283 282 282 282 282 282 282 281 282 282 282 281 281 282 283 284
285 284 284 283 283 283 283 284 285 285 284 284 284 284 284 284 283 284 287 284 283 282 281 282 283 282 281 281 281 282 282 282 281 281 280 281 281 281 281 281 281 282 284
284 284 283 283 283 283 283 284 285 284 284 284 284 285 284 283 284 286 284 283 281 281 282 283 280 279 280 280 281 281 281 281 281 281 281 281 281 281 282 283 283 283 283

GFSMA_925_thetae_033.txt.gz
Theta_e
330 326 327 329 330 329 329 328 327 324 322 321 317 317 316 314 312 311 310 310 310 310 313 316 317 319 320 322 324 325 326 327 327 328 328 329 329 330 330 330 332 332 330
329 330 330 329 326 325 323 322 320 317 314 313 311 309 307 306 305 304 305 306 305 304 305 312 313 315 315 315 316 317 318 319 319 320 320 322 322 324 326 328 329 329 331
330 329 324 321 319 318 316 314 312 308 307 305 304 302 301 301 300 301 304 301 302 300 301 305 307 307 307 308 309 311 312 312 311 312 314 315 315 316 317 319 322 326 327
327 328 324 320 314 313 310 308 306 303 301 300 299 299 299 298 299 304 299 298 300 297 299 299 299 298 300 302 304 305 306 308 309 310 310 311 311 312 315 318 318 320 322
325 323 316 312 308 306 304 302 300 298 297 297 296 297 297 297 303 300 298 298 297 297 298 297 296 295 295 298 300 302 304 306 306 307 307 308 308 310 312 312 313 315 319
319 314 307 304 303 302 301 298 296 295 296 294 294 295 297 298 301 299 295 296 296 297 295 295 293 293 292 295 297 299 302 301 301 303 303 304 305 308 310 312 314 315 315
307 305 303 302 301 300 296 295 294 294 294 293 294 295 297 298 298 298 294 295 295 295 293 292 291 291 291 292 293 297 298 298 299 300 301 302 305 306 307 308 309 310 311
303 303 301 300 298 295 294 293 293 292 292 293 295 295 294 294 297 297 294 293 294 293 292 290 290 290 291 292 290 295 294 295 296 297 299 300 302 303 304 305 306 307 308
301 300 299 297 295 293 293 292 292 291 292 292 293 292 290 292 292 293 294 294 293 291 290 290 290 290 291 291 290 292 292 293 294 296 297 299 300 301 302 303 304 304 305
298 297 296 294 293 292 292 291 291 290 290 290 291 291 291 293 290 290 292 291 290 288 289 289 289 290 289 289 291 290 291 292 293 294 297 298 299 299 300 301 302 302 303
296 295 293 292 291 291 291 290 290 290 289 289 289 289 289 289 290 289 289 288 287 287 288 289 289 288 289 289 289 290 290 291 292 293 295 295 296 298 299 301 300 301 301
294 293 292 291 290 290 290 290 289 289 289 288 288 287 287 288 289 287 286 286 286 287 287 287 288 288 289 289 289 289 289 290 291 292 292 293 295 296 296 296 297 298 299
293 291 291 290 290 289 289 289 289 288 288 287 287 287 287 286 286 286 286 286 286 286 286 287 288 288 287 287 288 288 288 289 289 290 290 292 293 293 293 294 294 295 296
291 290 290 289 289 289 289 289 288 288 287 287 287 286 286 286 286 286 285 285 285 285 286 286 286 287 287 287 287 287 287 287 288 288 289 290 291 291 291 291 292 293 294
290 290 289 289 289 289 288 288 288 287 287 287 286 286 286 286 286 285 285 285 285 285 285 286 286 286 286 286 286 287 287 287 287 288 289 289 289 289 290 291 291 292 293
289 289 289 289 289 288 288 287 287 287 286 286 286 286 286 286 285 285 285 284 285 285 285 285 285 286 286 286 286 286 286 287 287 287 287 288 288 288 289 289 289 290 290
289 289 288 288 288 288 287 287 286 286 286 286 286 286 286 286 285 285 285 284 284 285 285 285 285 285 286 285 285 285 286 286 286 287 287 287 286 286 287 288 289 289 290
288 288 288 288 287 287 286 286 285 286 286 287 287 286 286 286 285 285 285 284 284 284 284 285 286 285 285 285 285 285 286 286 286 285 285 285 285 286 286 287 288 288 288
288 288 288 287 286 286 285 285 286 286 287 286 286 286 285 285 285 285 285 284 284 285 286 285 285 285 285 286 286 286 285 284 283 283 283 284 284 285 285 286 287 287 288
287 287 287 286 285 285 284 285 286 287 286 286 286 285 285 285 285 285 285 285 286 285 285 285 285 286 285 285 284 283 283 283 283 283 283 283 284 284 284 284 285 285 286
287 286 286 285 285 284 284 286 287 287 286 285 285 284 284 284 285 285 285 285 285 285 285 285 285 285 283 283 282 282 282 283 283 283 283 282 282 282 282 282 283 283 284
286 286 285 285 284 283 284 286 287 287 286 285 284 284 284 284 284 284 284 284 285 285 286 286 283 283 282 282 282 282 283 284 282 282 282 282 282 282 282 282 282 283 284
286 285 285 284 283 283 284 286 286 286 285 284 284 284 284 283 284 284 283 284 285 285 284 283 282 281 281 282 283 283 282 282 282 282 282 282 282 281 281 281 282 283 284
285 285 284 283 283 283 284 285 285 285 284 284 284 284 283 284 284 284 285 286 283 282 282 282 282 282 283 283 282 282 282 282 282 281 281 281 281 281 281 281 281 282 283
284 284 283 283 283 283 283 284 285 284 284 284 284 284 284 284 283 284 285 283 282 281 281 282 283 282 281 281 282 282 282 281 281 281 280 280 281 281 281 281 281 282 283
283 283 283 283 283 283 283 284 284 284 284 284 285 284 283 283 284 285 283 282 281 280 282 283 280 279 279 280 281 281 281 280 280 280 280 280 280 281 282 282 283 282 282

GFSMA_925_thetae_039.txt.gz
Theta_e
330 328 326 326 328 328 325 323 322 320 316 312 310 306 304 303 302 302 303 303 304 309 313 315 314 314 313 313 314 315 314 315 316 316 317 318 319 320 320 321 322 324 326
331 327 328 328 327 322 320 319 317 313 310 306 302 301 300 300 299 301 301 302 301 304 309 309 308 308 308 308 310 310 311 311 312 314 315 315 315 316 316 317 319 320 321
329 329 329 325 320 318 315 312 309 304 302 301 300 299 298 297 298 299 299 300 299 298 302 302 302 302 303 304 305 306 307 308 309 310 311 310 311 312 313 314 315 316 317
329 328 322 318 318 314 308 303 302 300 299 298 298 297 296 297 299 298 298 298 297 296 295 294 293 293 297 299 301 303 304 305 306 307 306 307 308 308 309 310 311 314 316
325 321 317 312 310 304 303 301 300 298 296 296 297 296 296 297 297 296 295 296 295 294 294 293 291 291 290 295 297 300 300 301 303 303 304 305 305 306 306 308 310 311 312
320 317 311 305 303 303 301 299 296 295 294 294 295 295 296 297 299 296 296 293 294 294 293 292 291 290 290 290 294 296 296 298 300 301 301 302 303 304 305 306 308 308 309
313 311 303 302 303 302 298 296 295 293 293 292 294 296 295 294 297 298 295 293 293 293 292 290 289 289 290 289 290 292 294 295 298 298 300 301 302 303 304 305 306 306 307
305 303 303 302 300 298 295 294 293 292 291 292 293 293 296 295 294 294 293 292 291 291 290 289 288 288 289 289 289 291 291 293 295 296 298 299 300 301 302 303 304 305 306
301 302 301 300 297 295 293 292 291 291 292 291 291 293 295 294 293 292 292 291 291 289 289 288 287 288 288 288 288 289 290 291 293 295 297 298 299 300 301 302 303 304 304
300 299 298 296 294 293 291 291 290 290 290 291 290 289 289 291 292 292 291 291 289 288 287 287 287 287 287 287 288 288 289 290 292 294 295 297 297 299 300 301 301 301 302
297 296 295 294 292 291 291 290 290 290 289 289 289 289 289 289 289 290 290 290 288 288 287 286 286 287 287 287 287 287 288 289 291 292 293 295 296 297 298 298 299 300 300
293 293 293 292 291 290 290 290 289 289 288 288 287 287 287 288 289 288 288 288 288 287 286 286 286 286 286 286 287 287 287 288 290 290 291 292 293 294 295 296 296 297 298
292 291 291 290 290 290 290 289 289 288 288 287 287 286 286 287 287 287 287 288 287 287 286 286 286 286 286 286 286 286 286 287 287 288 289 291 292 292 292 293 294 294 295
292 291 290 290 290 289 289 289 288 287 287 286 286 286 286 286 286 286 286 286 288 288 287 287 286 285 285 285 285 285 285 286 286 287 288 289 289 290 290 291 291 292 293
291 290 290 289 289 289 289 288 287 287 286 286 286 286 286 286 286 286 286 286 286 287 288 286 286 285 285 285 285 285 285 286 286 287 287 288 288 288 289 290 290 290 291
290 289 289 289 289 288 288 287 286 286 286 286 286 286 286 286 285 285 285 285 285 286 287 286 285 285 285 285 285 285 285 285 285 286 286 287 287 287 288 289 289 289 289
289 289 289 288 288 287 287 286 285 285 286 286 286 286 285 285 285 285 285 285 285 285 286 285 285 285 285 285 285 285 285 285 285 285 285 285 286 286 287 287 288 288 289
289 288 288 288 287 286 286 285 285 286 286 286 286 286 285 285 284 284 284 284 284 284 285 285 285 285 285 285 285 285 285 284 283 283 283 284 285 286 286 286 287 287 288
288 288 288 287 286 286 285 284 285 286 286 286 286 285 284 284 284 284 284 284 284 285 285 285 285 285 285 285 285 284 283 282 282 283 283 283 284 285 285 286 286 287 287
288 287 287 286 285 285 284 285 286 287 287 286 286 285 284 284 284 284 285 285 285 285 285 285 285 286 285 284 283 283 283 283 283 283 283 283 284 284 284 284 285 285 285
287 287 286 285 285 284 284 286 287 287 286 286 285 284 284 284 285 285 285 285 285 285 285 286 286 285 284 283 283 283 283 283 283 283 283 283 283 283 283 283 283 283 283
286 286 285 285 284 284 283 286 287 286 286 285 284 284 284 284 283 284 284 284 285 285 286 286 284 284 283 282 283 283 283 284 284 283 283 283 283 283 283 283 283 283 284
286 285 285 284 283 283 284 286 286 286 285 284 284 284 284 283 284 283 283 284 285 286 285 284 283 282 282 283 283 284 283 283 283 283 282 283 282 282 282 282 282 283 284
285 284 284 283 283 283 283 285 285 285 284 284 284 283 283 283 283 284 284 285 284 283 283 282 282 282 283 284 282 282 282 282 282 282 282 283 282 282 282 282 282 283 284
284 284 283 282 283 282 282 284 285 284 284 284 283 283 283 283 283 284 285 284 283 282 281 282 283 283 281 281 281 282 282 281 282 281 281 281 282 282 282 282 282 283 284
284 283 282 282 282 282 282 283 284 284 284 284 284 284 283 283 283 285 284 283 282 281 282 283 281 280 279 280 280 280 280 280 280 281 281 281 281 282 283 283 283 283 283